Lid_Strength_Index
0 0 -0 0 0 -0 0 0 1 0 0 1 1 1 1 0 -0 -0 -0 0 0 0 -0 0 0 -0 1 1 2 2 3 4 5 4 3 1 -1 -1 -2 -2 -1 -1 1
0 0 0 0 0 0 0 -0 -0 -0 -0 -0 -0 0 1 1 0 0 0 0 0 1 0 0 0 0 0 0 1 2 2 2 4 3 1 0 -0 -1 -1 -1 -0 0 1
0 0 0 0 0 0 0 0 -0 -0 0 -0 -0 0 0 1 1 1 0 0 0 0 0 0 0 0 0 1 0 2 1 2 1 1 1 1 1 0 0 1 1 1 2
1 1 1 0 0 1 0 0 0 -0 -0 -0 -0 0 1 1 1 1 1 1 1 0 -0 -0 0 -0 0 0 0 -0 -0 0 0 1 1 1 1 1 0 2 3 2 3
1 1 1 1 0 -0 0 1 0 -0 -0 -0 0 0 0 -0 -0 -0 -0 -0 0 0 -0 -0 -0 1 2 1 -0 -0 -0 0 1 1 1 1 2 2 1 1 2 3 3
1 1 1 0 0 0 0 0 0 0 0 -0 0 0 0 1 7 6 1 -0 -0 0 0 0 1 2 4 5 4 4 1 0 1 1 1 2 1 1 1 2 2 4 4
1 1 1 0 1 0 0 0 0 0 -0 0 0 -0 0 -0 8 8 5 -0 -0 0 0 1 2 3 2 1 6 6 6 6 4 -0 1 1 1 1 1 2 2 2 3
1 1 1 1 1 0 0 0 0 0 0 0 0 -0 -0 1 9 9 7 1 2 2 1 1 1 1 2 2 1 1 1 1 1 1 -1 -1 -0 -1 1 1 1 2 3
1 1 1 1 1 1 1 1 0 0 0 0 -0 -0 0 0 9 10 6 3 4 4 5 4 3 3 9 9 2 2 2 3 9 9 10 10 10 9 5 3 4 5 6
1 1 1 0 1 1 0 0 1 0 0 1 1 0 3 -0 9 10 6 4 4 5 5 5 9 6 11 10 3 3 4 3 4 5 4 6 8 6 9 3 4 6 7
1 0 1 0 0 0 0 0 0 1 1 1 1 1 1 1 2 10 10 3 4 5 5 4 4 11 11 11 9 4 4 4 7 5 6 6 6 5 6 5 4 6 7
0 1 1 0 1 0 0 0 0 1 1 1 1 1 2 1 6 9 10 9 5 1 2 2 3 10 11 11 10 9 11 10 5 6 6 7 7 7 7 6 5 5 5
1 1 1 1 0 0 1 1 1 1 1 1 2 2 2 2 2 9 10 10 9 3 1 4 7 10 11 11 12 12 14 8 6 6 6 6 7 7 6 6 6 5 5
1 1 1 1 1 1 1 0 1 1 1 2 2 2 1 1 2 2 4 5 9 6 8 4 6 8 9 8 7 9 7 5 6 6 6 6 6 7 8 7 8 8 8
1 1 1 1 1 1 1 0 1 0 1 1 1 1 1 1 1 3 3 2 2 4 4 4 4 5 5 4 5 5 6 6 6 6 7 7 8 8 7 6 7 9 8
2 1 1 1 1 1 1 1 6 7 8 8 8 3 0 5 8 9 9 9 10 12 5 3 3 3 4 4 4 3 3 6 6 7 7 7 7 8 8 8 8 8 8
2 1 1 2 1 1 1 1 2 3 9 9 10 9 9 10 10 10 10 12 13 11 3 5 6 5 5 4 4 4 4 5 7 7 8 9 10 8 9 8 8 7 7
1 6 1 1 1 1 1 1 1 1 2 1 10 9 11 10 10 12 13 10 7 6 3 4 3 3 3 4 5 6 7 8 9 10 10 8 8 8 8 8 8 8 8
2 2 1 1 1 2 1 1 1 1 1 1 3 6 10 13 13 13 11 2 1 2 3 5 5 5 5 8 8 8 10 10 11 9 9 8 7 8 7 7 7 11 9
2 6 5 1 1 1 1 2 1 1 1 1 2 1 3 5 3 4 3 3 6 5 6 8 8 8 9 10 11 10 10 9 9 8 8 7 6 7 6 6 6 5 5
2 3 6 2 2 2 2 1 1 1 1 2 1 3 10 3 4 5 5 6 7 8 9 9 9 10 10 11 9 9 9 9 8 8 7 7 6 6 5 4 4 4 5
2 3 3 2 2 2 2 2 1 2 2 3 4 7 13 6 7 8 7 9 9 8 9 9 9 10 9 9 9 9 9 9 8 8 7 6 5 4 4 4 5 6 5
2 2 2 3 3 6 2 2 2 3 4 5 5 5 4 5 6 7 8 8 10 9 8 10 9 10 9 9 9 8 9 8 7 6 5 5 4 5 4 5 6 6 6
2 2 2 3 3 3 4 4 5 7 5 5 4 5 6 7 8 9 11 11 11 10 9 9 9 9 9 9 9 8 7 6 5 5 5 5 5 5 4 4 5 5 5
2 2 3 3 4 5 5 5 5 5 6 7 8 9 9 11 11 11 11 10 10 10 10 10 9 9 8 7 7 6 11 12 7 10 4 4 5 4 4 5 5 4 4
3 3 3 4 4 4 5 6 6 7 9 10 10 11 11 10 11 10 9 9 9 10 10 9 8 7 7 7 7 11 12 11 8 11 5 4 4 4 4 3 3 4 6